This is the latest recevied weather packets stored in our database for station/object KK7DS. If no packets are shown the sender has not sent any weather packets the latest 10 day(s).
| Time | Temp. | Humidity | Pressure | Rain* | Wind** | Luminosity | Snow |
|---|---|---|---|---|---|---|---|
| 1777791542 | 17.22° C | 79% | 1013 hPa | 0 mm | - | - | - |
| 1777790427 | 17.22° C | 78% | 1013 hPa | 0 mm | - | - | - |
| 1777789918 | 17.22° C | 78% | 1013 hPa | 0 mm | - | - | - |
| 1777789410 | 16.67° C | 80% | 1013 hPa | 0 mm | - | - | - |
| 1777788883 | 16.67° C | 81% | 1013 hPa | 0 mm | - | - | - |
| 1777788332 | 16.67° C | 81% | 1013.2 hPa | 0 mm | - | - | - |
| 1777787830 | 16.67° C | 80% | 1013.3 hPa | 0 mm | - | - | - |
| 1777787308 | 17.22° C | 78% | 1013.1 hPa | 0 mm | - | - | - |
| 1777786285 | 17.22° C | 78% | 1012.9 hPa | 0 mm | - | - | - |
| 1777785765 | 17.22° C | 78% | 1012.7 hPa | 0 mm | - | - | - |
| 1777785179 | 17.22° C | 78% | 1012.9 hPa | 0 mm | - | - | - |
| 1777784635 | 17.22° C | 78% | 1012.8 hPa | 0 mm | - | - | - |
| 1777784060 | 17.22° C | 79% | 1013 hPa | 0 mm | - | - | - |
| 1777783510 | 17.22° C | 79% | 1013.3 hPa | 0 mm | - | - | - |
| 1777782968 | 16.67° C | 78% | 1013.3 hPa | 0 mm | - | - | - |
| 1777782448 | 17.22° C | 77% | 1013.1 hPa | 0 mm | - | - | - |
| 1777781879 | 17.22° C | 75% | 1013 hPa | 0 mm | - | - | - |
| 1777781335 | 17.78° C | 75% | 1013 hPa | 0 mm | - | - | - |
| 1777780240 | 17.78° C | 74% | 1013 hPa | 0 mm | - | - | - |
| 1777779659 | 17.78° C | 73% | 1013 hPa | 0 mm | - | - | - |
| 1777779105 | 17.78° C | 73% | 1012.9 hPa | 0 mm | - | - | - |
| 1777778580 | 17.22° C | 76% | 1012.9 hPa | 0 mm | - | - | - |
| 1777778034 | 16.67° C | 78% | 1012.8 hPa | 0 mm | - | - | - |
| 1777777494 | 16.67° C | 79% | 1012.7 hPa | 0 mm | - | - | - |
| 1777776899 | 16.67° C | 79% | 1012.7 hPa | 0 mm | - | - | - |
* Rain latest hour (hover to see other rain measurements)
** Current wind speed in m/s (hover to see current wind gust speed)